Simultaneous Nadir Overpasses (SNOs) Predictions

Prediction of SNOs between TERRA and METOP-C Satellite Orbit:

Table of predicted SNOs for the next 14.0 days since TLE Epoch: 9/5/2025
Index Date (TERRA) Time (TERRA) Lat,Lon (TERRA) SZA (TERRA ) Date (METOP-C) Time (METOP-C) Lat,Lon (METOP-C) SZA (METOP-C ) Distance(km) Time Diff (sec)
1 09/05/2025 23:07:08 -77.27, 113.88 93.85 09/05/2025 23:06:07 -77.27, 113.89 93.90 0.39 61
2 09/05/2025 23:56:15 76.68, -76.35 86.76 09/05/2025 23:56:35 76.68, -76.36 86.77 0.53 20
3 09/08/2025 12:45:55 77.10, 89.75 87.30 09/08/2025 12:45:41 77.10, 89.73 87.28 0.72 14
4 09/08/2025 13:35:00 -76.43,-100.31 92.03 09/08/2025 13:36:06 -76.43,-100.33 91.98 0.62 66
5 09/11/2025 01:35:31 77.35,-103.62 88.02 09/11/2025 01:34:43 77.35,-103.56 87.99 1.57 48
6 09/11/2025 02:24:38 -76.78, 66.11 91.40 09/11/2025 02:25:10 -76.78, 66.14 91.36 0.89 32
7 09/13/2025 15:14:16 -77.20,-127.80 90.84 09/13/2025 15:14:15 -77.21,-127.86 90.85 1.46 1
8 09/16/2025 04:03:52 -77.50, 38.62 90.15 09/16/2025 04:03:18 -77.51, 38.58 90.19 1.26 34
9 09/16/2025 04:52:56 76.80,-151.13 90.57 09/16/2025 04:53:43 76.79,-151.06 90.63 1.91 47
10 09/18/2025 16:53:26 -77.74,-154.73 89.39 09/18/2025 16:52:19 -77.73,-154.68 89.44 1.52 67



Historial Predications of SNOs between TERRA and METOP-C
